Year,Month,Day,Hour,Minute,Value (Times are PST for temperature in C)
2014,03,29,00,00,8.40
2014,03,29,00,01,8.40
2014,03,29,00,02,8.30
2014,03,29,00,03,8.30
2014,03,29,00,04,8.30
2014,03,29,00,05,8.30
2014,03,29,00,06,8.30
2014,03,29,00,07,8.20
2014,03,29,00,08,8.20
2014,03,29,00,09,8.20
2014,03,29,00,10,8.20
2014,03,29,00,11,8.20
2014,03,29,00,12,8.20
2014,03,29,00,13,8.20
2014,03,29,00,14,8.20
2014,03,29,00,15,8.20
2014,03,29,00,16,8.20
2014,03,29,00,17,8.20
2014,03,29,00,18,8.10
2014,03,29,00,19,8.20
2014,03,29,00,20,8.20
2014,03,29,00,21,8.20
2014,03,29,00,22,8.20
2014,03,29,00,23,8.10
2014,03,29,00,24,8.10
2014,03,29,00,25,8.10
2014,03,29,00,26,8.10
2014,03,29,00,27,8.10
2014,03,29,00,28,8.10
2014,03,29,00,29,8.10
2014,03,29,00,30,8.10
2014,03,29,00,31,8.10
2014,03,29,00,32,8.20
2014,03,29,00,33,8.20
2014,03,29,00,34,8.20
2014,03,29,00,35,8.20
2014,03,29,00,36,8.20
2014,03,29,00,37,8.20
2014,03,29,00,38,8.20
2014,03,29,00,39,8.20
2014,03,29,00,40,8.20
2014,03,29,00,41,8.20
2014,03,29,00,42,8.20
2014,03,29,00,43,8.20
2014,03,29,00,44,8.20
2014,03,29,00,45,8.20
2014,03,29,00,46,8.20
2014,03,29,00,47,8.20
2014,03,29,00,48,8.20
2014,03,29,00,49,8.20
2014,03,29,00,50,8.20
2014,03,29,00,51,8.20
2014,03,29,00,52,8.20
2014,03,29,00,53,8.10
2014,03,29,00,54,8.10
2014,03,29,00,55,8.10
2014,03,29,00,56,8.10
2014,03,29,00,57,8.10
2014,03,29,00,58,8.10
2014,03,29,00,59,8.10
2014,03,29,01,00,8.10
2014,03,29,01,01,8.10
2014,03,29,01,02,8.10
2014,03,29,01,03,8.10
2014,03,29,01,04,8.10
2014,03,29,01,05,8.10
2014,03,29,01,06,8.00
2014,03,29,01,07,8.00
2014,03,29,01,08,8.00
2014,03,29,01,09,8.00
2014,03,29,01,10,7.90
2014,03,29,01,11,7.90
2014,03,29,01,12,7.90
2014,03,29,01,13,7.90
2014,03,29,01,14,7.90
2014,03,29,01,15,7.90
2014,03,29,01,16,7.80
2014,03,29,01,17,7.80
2014,03,29,01,18,7.80
2014,03,29,01,19,7.80
2014,03,29,01,20,7.80
2014,03,29,01,21,7.80
2014,03,29,01,22,7.80
2014,03,29,01,23,7.80
2014,03,29,01,24,7.80
2014,03,29,01,25,7.80
2014,03,29,01,26,7.80
2014,03,29,01,27,7.80
2014,03,29,01,28,7.80
2014,03,29,01,29,7.80
2014,03,29,01,30,7.80
2014,03,29,01,31,7.80
2014,03,29,01,32,7.80
2014,03,29,01,33,7.80
2014,03,29,01,34,7.80
2014,03,29,01,35,7.80
2014,03,29,01,36,7.80
2014,03,29,01,37,7.80
2014,03,29,01,38,7.80
2014,03,29,01,39,7.80
2014,03,29,01,40,7.80
2014,03,29,01,41,7.80
2014,03,29,01,42,7.80
2014,03,29,01,43,7.80
2014,03,29,01,44,7.80
2014,03,29,01,45,7.80
2014,03,29,01,46,7.80
2014,03,29,01,47,7.80
2014,03,29,01,48,7.80
2014,03,29,01,49,7.80
2014,03,29,01,50,7.80
2014,03,29,01,51,7.80
2014,03,29,01,52,7.80
2014,03,29,01,53,7.80
2014,03,29,01,54,7.80
2014,03,29,01,55,7.80
2014,03,29,01,56,7.80
2014,03,29,01,57,7.80
2014,03,29,01,58,7.80
2014,03,29,01,59,7.80
2014,03,29,02,00,7.80
2014,03,29,02,01,7.80
2014,03,29,02,02,7.80
2014,03,29,02,03,7.80
2014,03,29,02,04,7.80
2014,03,29,02,05,7.80
2014,03,29,02,06,7.80
2014,03,29,02,07,7.80
2014,03,29,02,08,7.80
2014,03,29,02,09,7.80
2014,03,29,02,10,7.80
2014,03,29,02,11,7.80
2014,03,29,02,12,7.80
2014,03,29,02,13,7.80
2014,03,29,02,14,7.80
2014,03,29,02,15,7.80
2014,03,29,02,16,7.80
2014,03,29,02,17,7.80
2014,03,29,02,18,7.80
2014,03,29,02,19,7.80
2014,03,29,02,20,7.80
2014,03,29,02,21,7.80
2014,03,29,02,22,7.80
2014,03,29,02,23,7.80
2014,03,29,02,24,7.80
2014,03,29,02,25,7.80
2014,03,29,02,26,7.80
2014,03,29,02,27,7.80
2014,03,29,02,28,7.80
2014,03,29,02,29,7.80
2014,03,29,02,30,7.80
2014,03,29,02,31,7.80
2014,03,29,02,32,7.80
2014,03,29,02,33,7.80
2014,03,29,02,34,7.80
2014,03,29,02,35,7.80
2014,03,29,02,36,7.80
2014,03,29,02,37,7.80
2014,03,29,02,38,7.80
2014,03,29,02,39,7.80
2014,03,29,02,40,7.80
2014,03,29,02,41,7.80
2014,03,29,02,42,7.80
2014,03,29,02,43,7.80
2014,03,29,02,44,7.80
2014,03,29,02,45,7.80
2014,03,29,02,46,7.80
2014,03,29,02,47,7.80
2014,03,29,02,48,7.80
2014,03,29,02,49,7.80
2014,03,29,02,50,7.80
2014,03,29,02,51,7.80
2014,03,29,02,52,7.80
2014,03,29,02,53,7.80
2014,03,29,02,54,7.70
2014,03,29,02,55,7.70
2014,03,29,02,56,7.70
2014,03,29,02,57,7.70
2014,03,29,02,58,7.70
2014,03,29,02,59,7.70
2014,03,29,03,00,7.70
2014,03,29,03,01,7.60
2014,03,29,03,02,7.60
2014,03,29,03,03,7.60
2014,03,29,03,04,7.60
2014,03,29,03,05,7.60
2014,03,29,03,06,7.60
2014,03,29,03,07,7.60
2014,03,29,03,08,7.60
2014,03,29,03,09,7.60
2014,03,29,03,10,7.60
2014,03,29,03,11,7.60
2014,03,29,03,12,7.60
2014,03,29,03,13,7.60
2014,03,29,03,14,7.60
2014,03,29,03,15,7.60
2014,03,29,03,16,7.60
2014,03,29,03,17,7.60
2014,03,29,03,18,7.60
2014,03,29,03,19,7.60
2014,03,29,03,20,7.60
2014,03,29,03,21,7.60
2014,03,29,03,22,7.60
2014,03,29,03,23,7.60
2014,03,29,03,24,7.60
2014,03,29,03,25,7.60
2014,03,29,03,26,7.60
2014,03,29,03,27,7.60
2014,03,29,03,28,7.60
2014,03,29,03,29,7.60
2014,03,29,03,30,7.60
2014,03,29,03,31,7.60
2014,03,29,03,32,7.60
2014,03,29,03,33,7.60
2014,03,29,03,34,7.60
2014,03,29,03,35,7.60
2014,03,29,03,36,7.60
2014,03,29,03,37,7.60
2014,03,29,03,38,7.60
2014,03,29,03,39,7.60
2014,03,29,03,40,7.60
2014,03,29,03,41,7.60
2014,03,29,03,42,7.60
2014,03,29,03,43,7.60
2014,03,29,03,44,7.60
2014,03,29,03,45,7.70
2014,03,29,03,46,7.70
2014,03,29,03,47,7.70
2014,03,29,03,48,7.70
2014,03,29,03,49,7.70
2014,03,29,03,50,7.70
2014,03,29,03,51,7.70
2014,03,29,03,52,7.70
2014,03,29,03,53,7.70
2014,03,29,03,54,7.70
2014,03,29,03,55,7.70
2014,03,29,03,56,7.70
2014,03,29,03,57,7.70
2014,03,29,03,58,7.70
2014,03,29,03,59,7.70
2014,03,29,04,00,7.70
2014,03,29,04,01,7.70
2014,03,29,04,02,7.70
2014,03,29,04,03,7.70
2014,03,29,04,04,7.70
2014,03,29,04,05,7.70
2014,03,29,04,06,7.70
2014,03,29,04,07,7.70
2014,03,29,04,08,7.70
2014,03,29,04,09,7.70
2014,03,29,04,10,7.80
2014,03,29,04,11,7.80
2014,03,29,04,12,7.80
2014,03,29,04,13,7.80
2014,03,29,04,14,7.80
2014,03,29,04,15,7.80
2014,03,29,04,16,7.80
2014,03,29,04,17,7.80
2014,03,29,04,18,7.80
2014,03,29,04,19,7.80
2014,03,29,04,20,7.80
2014,03,29,04,21,7.80
2014,03,29,04,22,7.80
2014,03,29,04,23,7.80
2014,03,29,04,24,7.80
2014,03,29,04,25,7.80
2014,03,29,04,26,7.80
2014,03,29,04,27,7.80
2014,03,29,04,28,7.80
2014,03,29,04,29,7.80
2014,03,29,04,30,7.80
2014,03,29,04,31,7.80
2014,03,29,04,32,7.80
2014,03,29,04,33,7.70
2014,03,29,04,34,7.70
2014,03,29,04,35,7.70
2014,03,29,04,36,7.70
2014,03,29,04,37,7.70
2014,03,29,04,38,7.60
2014,03,29,04,39,7.60
2014,03,29,04,40,7.60
2014,03,29,04,41,7.60
2014,03,29,04,42,7.50
2014,03,29,04,43,7.50
2014,03,29,04,44,7.50
2014,03,29,04,45,7.50
2014,03,29,04,46,7.40
2014,03,29,04,47,7.40
2014,03,29,04,48,7.40
2014,03,29,04,49,7.40
2014,03,29,04,50,7.40
2014,03,29,04,51,7.30
2014,03,29,04,52,7.30
2014,03,29,04,53,7.30
2014,03,29,04,54,7.30
2014,03,29,04,55,7.20
2014,03,29,04,56,7.20
2014,03,29,04,57,7.20
2014,03,29,04,58,7.20
2014,03,29,04,59,7.20
2014,03,29,05,00,7.10
2014,03,29,05,01,7.10
2014,03,29,05,02,7.10
2014,03,29,05,03,7.10
2014,03,29,05,04,7.10
2014,03,29,05,05,7.10
2014,03,29,05,06,7.00
2014,03,29,05,07,7.00
2014,03,29,05,08,7.00
2014,03,29,05,09,7.00
2014,03,29,05,10,7.00
2014,03,29,05,11,7.00
2014,03,29,05,12,7.00
2014,03,29,05,13,7.00
2014,03,29,05,14,7.00
2014,03,29,05,15,7.00
2014,03,29,05,16,6.90
2014,03,29,05,17,6.90
2014,03,29,05,18,6.90
2014,03,29,05,19,6.90
2014,03,29,05,20,6.90
2014,03,29,05,21,6.90
2014,03,29,05,22,6.90
2014,03,29,05,23,6.90
2014,03,29,05,24,6.90
2014,03,29,05,25,6.90
2014,03,29,05,26,6.80
2014,03,29,05,27,6.80
2014,03,29,05,28,6.80
2014,03,29,05,29,6.80
2014,03,29,05,30,6.80
2014,03,29,05,31,6.80
2014,03,29,05,32,6.80
2014,03,29,05,33,6.80
2014,03,29,05,34,6.80
2014,03,29,05,35,6.80
2014,03,29,05,36,6.80
2014,03,29,05,37,6.80
2014,03,29,05,38,6.80
2014,03,29,05,39,6.80
2014,03,29,05,40,6.80
2014,03,29,05,41,6.80
2014,03,29,05,42,6.80
2014,03,29,05,43,6.80
2014,03,29,05,44,6.80
2014,03,29,05,45,6.80
2014,03,29,05,46,6.80
2014,03,29,05,47,6.80
2014,03,29,05,48,6.70
2014,03,29,05,49,6.70
2014,03,29,05,50,6.70
2014,03,29,05,51,6.70
2014,03,29,05,52,6.70
2014,03,29,05,53,6.70
2014,03,29,05,54,6.60
2014,03,29,05,55,6.60
2014,03,29,05,56,6.60
2014,03,29,05,57,6.60
2014,03,29,05,58,6.60
2014,03,29,05,59,6.60
2014,03,29,06,00,6.50
2014,03,29,06,01,6.60
2014,03,29,06,02,6.50
2014,03,29,06,03,6.50
2014,03,29,06,04,6.50
2014,03,29,06,05,6.50
2014,03,29,06,06,6.50
2014,03,29,06,07,6.50
2014,03,29,06,08,6.50
2014,03,29,06,09,6.40
2014,03,29,06,10,6.40
2014,03,29,06,11,6.40
2014,03,29,06,12,6.40
2014,03,29,06,13,6.40
2014,03,29,06,14,6.40
2014,03,29,06,15,6.40
2014,03,29,06,16,6.40
2014,03,29,06,17,6.40
2014,03,29,06,18,6.40
2014,03,29,06,19,6.40
2014,03,29,06,20,6.40
2014,03,29,06,21,6.40
2014,03,29,06,22,6.40
2014,03,29,06,23,6.50
2014,03,29,06,24,6.50
2014,03,29,06,25,6.50
2014,03,29,06,26,6.50
2014,03,29,06,27,6.60
2014,03,29,06,28,6.60
2014,03,29,06,29,6.60
2014,03,29,06,30,6.60
2014,03,29,06,31,6.60
2014,03,29,06,32,6.70
2014,03,29,06,33,6.70
2014,03,29,06,34,6.70
2014,03,29,06,35,6.70
2014,03,29,06,36,6.70
2014,03,29,06,37,6.70
2014,03,29,06,38,6.80
2014,03,29,06,39,6.80
2014,03,29,06,40,6.80
2014,03,29,06,41,6.80
2014,03,29,06,42,6.80
2014,03,29,06,43,6.80
2014,03,29,06,44,6.80
2014,03,29,06,45,6.80
2014,03,29,06,46,6.80
2014,03,29,06,47,6.80
2014,03,29,06,48,6.80
2014,03,29,06,49,6.80
2014,03,29,06,50,6.80
2014,03,29,06,51,6.80
2014,03,29,06,52,6.80
2014,03,29,06,53,6.80
2014,03,29,06,54,6.70
2014,03,29,06,55,6.70
2014,03,29,06,56,6.70
2014,03,29,06,57,6.70
2014,03,29,06,58,6.70
2014,03,29,06,59,6.70
2014,03,29,07,00,6.70
2014,03,29,07,01,6.70
2014,03,29,07,02,6.70
2014,03,29,07,03,6.60
2014,03,29,07,04,6.60
2014,03,29,07,05,6.60
2014,03,29,07,06,6.60
2014,03,29,07,07,6.60
2014,03,29,07,08,6.60
2014,03,29,07,09,6.60
2014,03,29,07,10,6.60
2014,03,29,07,11,6.60
2014,03,29,07,12,6.60
2014,03,29,07,13,6.60
2014,03,29,07,14,6.60
2014,03,29,07,15,6.60
2014,03,29,07,16,6.60
2014,03,29,07,17,6.60
2014,03,29,07,18,6.60
2014,03,29,07,19,6.60
2014,03,29,07,20,6.60
2014,03,29,07,21,6.60
2014,03,29,07,22,6.50
2014,03,29,07,23,6.50
2014,03,29,07,24,6.50
2014,03,29,07,25,6.50
2014,03,29,07,26,6.50
2014,03,29,07,27,6.50
2014,03,29,07,28,6.50
2014,03,29,07,29,6.50
2014,03,29,07,30,6.50
2014,03,29,07,31,6.50
2014,03,29,07,32,6.40
2014,03,29,07,33,6.40
2014,03,29,07,34,6.40
2014,03,29,07,35,6.40
2014,03,29,07,36,6.40
2014,03,29,07,37,6.40
2014,03,29,07,38,6.40
2014,03,29,07,39,6.40
2014,03,29,07,40,6.40
2014,03,29,07,41,6.40
2014,03,29,07,42,6.50
2014,03,29,07,43,6.50
2014,03,29,07,44,6.50
2014,03,29,07,45,6.50
2014,03,29,07,46,6.50
2014,03,29,07,47,6.50
2014,03,29,07,48,6.50
2014,03,29,07,49,6.60
2014,03,29,07,50,6.60
2014,03,29,07,51,6.60
2014,03,29,07,52,6.60
2014,03,29,07,53,6.60
2014,03,29,07,54,6.60
2014,03,29,07,55,6.60
2014,03,29,07,56,6.60
2014,03,29,07,57,6.60
2014,03,29,07,58,6.60
2014,03,29,07,59,6.60
2014,03,29,08,00,6.60
2014,03,29,08,01,6.60
2014,03,29,08,02,6.60
2014,03,29,08,03,6.60
2014,03,29,08,04,6.70
2014,03,29,08,05,6.70
2014,03,29,08,06,6.70
2014,03,29,08,07,6.70
2014,03,29,08,08,6.70
2014,03,29,08,09,6.70
2014,03,29,08,10,6.70
2014,03,29,08,11,6.70
2014,03,29,08,12,6.70
2014,03,29,08,13,6.70
2014,03,29,08,14,6.70
2014,03,29,08,15,6.70
2014,03,29,08,16,6.70
2014,03,29,08,17,6.80
2014,03,29,08,18,6.80
2014,03,29,08,19,6.80
2014,03,29,08,20,6.80
2014,03,29,08,21,6.80
2014,03,29,08,22,6.80
2014,03,29,08,23,6.80
2014,03,29,08,24,6.80
2014,03,29,08,25,6.80
2014,03,29,08,26,6.90
2014,03,29,08,27,6.90
2014,03,29,08,28,6.90
2014,03,29,08,29,6.90
2014,03,29,08,30,6.90
2014,03,29,08,31,6.90
2014,03,29,08,32,7.00
2014,03,29,08,33,7.00
2014,03,29,08,34,7.00
2014,03,29,08,35,7.00
2014,03,29,08,36,7.00
2014,03,29,08,37,7.00
2014,03,29,08,38,7.10
2014,03,29,08,39,7.10
2014,03,29,08,40,7.10
2014,03,29,08,41,7.10
2014,03,29,08,42,7.10
2014,03,29,08,43,7.10
2014,03,29,08,44,7.10
2014,03,29,08,45,7.20
2014,03,29,08,46,7.20
2014,03,29,08,47,7.20
2014,03,29,08,48,7.20
2014,03,29,08,49,7.20
2014,03,29,08,50,7.20
2014,03,29,08,51,7.30
2014,03,29,08,52,7.30
2014,03,29,08,53,7.30
2014,03,29,08,54,7.30
2014,03,29,08,55,7.30
2014,03,29,08,56,7.30
2014,03,29,08,57,7.40
2014,03,29,08,58,7.40
2014,03,29,08,59,7.40
2014,03,29,09,00,7.40
2014,03,29,09,01,7.40
2014,03,29,09,02,7.40
2014,03,29,09,03,7.40
2014,03,29,09,04,7.50
2014,03,29,09,05,7.50
2014,03,29,09,06,7.50
2014,03,29,09,07,7.50
2014,03,29,09,08,7.50
2014,03,29,09,09,7.50
2014,03,29,09,10,7.50
2014,03,29,09,11,7.50
2014,03,29,09,12,7.50
2014,03,29,09,13,7.60
2014,03,29,09,14,7.60
2014,03,29,09,15,7.60
2014,03,29,09,16,7.60
2014,03,29,09,17,7.60
2014,03,29,09,18,7.70
2014,03,29,09,19,7.70
2014,03,29,09,20,7.70
2014,03,29,09,21,7.70
2014,03,29,09,22,7.80
2014,03,29,09,23,7.80
2014,03,29,09,24,7.80
2014,03,29,09,25,7.90
2014,03,29,09,26,8.00
2014,03,29,09,27,8.10
2014,03,29,09,28,8.20
2014,03,29,09,29,8.20
2014,03,29,09,30,8.30
2014,03,29,09,31,8.40
2014,03,29,09,32,8.50
2014,03,29,09,33,8.50
2014,03,29,09,34,8.60
2014,03,29,09,35,8.80
2014,03,29,09,36,8.80
2014,03,29,09,37,8.80
2014,03,29,09,38,8.90
2014,03,29,09,39,8.90
2014,03,29,09,40,9.00
2014,03,29,09,41,9.00
2014,03,29,09,42,9.10
2014,03,29,09,43,9.10
2014,03,29,09,44,9.20
2014,03,29,09,45,9.20
2014,03,29,09,46,9.30
2014,03,29,09,47,9.30
2014,03,29,09,48,9.30
2014,03,29,09,49,9.30
2014,03,29,09,50,9.30
2014,03,29,09,51,9.30
2014,03,29,09,52,9.30
2014,03,29,09,53,9.30
2014,03,29,09,54,9.30
2014,03,29,09,55,9.30
2014,03,29,09,56,9.40
2014,03,29,09,57,9.40
2014,03,29,09,58,9.50
2014,03,29,09,59,9.50
2014,03,29,10,00,9.50
2014,03,29,10,01,9.50
2014,03,29,10,02,9.60
2014,03,29,10,03,9.80
2014,03,29,10,04,9.90
2014,03,29,10,05,10.00
2014,03,29,10,06,10.10
2014,03,29,10,07,10.20
2014,03,29,10,08,10.20
2014,03,29,10,09,10.30
2014,03,29,10,10,10.40
2014,03,29,10,11,10.50
2014,03,29,10,12,10.50
2014,03,29,10,13,10.50
2014,03,29,10,14,10.50
2014,03,29,10,15,10.50
2014,03,29,10,16,10.50
2014,03,29,10,17,10.40
2014,03,29,10,18,10.40
2014,03,29,10,19,10.30
2014,03,29,10,20,10.30
2014,03,29,10,21,10.30
2014,03,29,10,22,10.30
2014,03,29,10,23,10.40
2014,03,29,10,24,10.30
2014,03,29,10,25,10.40
2014,03,29,10,26,10.40
2014,03,29,10,27,10.40
2014,03,29,10,28,10.40
2014,03,29,10,29,10.30
2014,03,29,10,30,10.30
2014,03,29,10,31,10.30
2014,03,29,10,32,10.30
2014,03,29,10,33,10.30
2014,03,29,10,34,10.30
2014,03,29,10,35,10.30
2014,03,29,10,36,10.30
2014,03,29,10,37,10.30
2014,03,29,10,38,10.30
2014,03,29,10,39,10.40
2014,03,29,10,40,10.40
2014,03,29,10,41,10.50
2014,03,29,10,42,10.50
2014,03,29,10,43,10.50
2014,03,29,10,44,10.60
2014,03,29,10,45,10.60
2014,03,29,10,46,10.70
2014,03,29,10,47,10.70
2014,03,29,10,48,10.80
2014,03,29,10,49,10.80
2014,03,29,10,50,10.80
2014,03,29,10,51,10.90
2014,03,29,10,52,10.90
2014,03,29,10,53,11.00
2014,03,29,10,54,11.00
2014,03,29,10,55,11.10
2014,03,29,10,56,11.10
2014,03,29,10,57,11.20
2014,03,29,10,58,11.20
2014,03,29,10,59,11.20
2014,03,29,11,00,11.30
2014,03,29,11,01,11.40
2014,03,29,11,02,11.50
2014,03,29,11,03,11.50
2014,03,29,11,04,11.60
2014,03,29,11,05,11.70
2014,03,29,11,06,11.80
2014,03,29,11,07,11.80
2014,03,29,11,08,11.90
2014,03,29,11,09,11.90
2014,03,29,11,10,12.00
2014,03,29,11,11,12.10
2014,03,29,11,12,12.10
2014,03,29,11,13,12.20
2014,03,29,11,14,12.20
2014,03,29,11,15,12.30
2014,03,29,11,16,12.30
2014,03,29,11,17,12.30
2014,03,29,11,18,12.40
2014,03,29,11,19,12.40
2014,03,29,11,20,12.40
2014,03,29,11,21,12.40
2014,03,29,11,22,12.40
2014,03,29,11,23,12.40
2014,03,29,11,24,12.40
2014,03,29,11,25,12.40
2014,03,29,11,26,12.40
2014,03,29,11,27,12.30
2014,03,29,11,28,12.30
2014,03,29,11,29,12.30
2014,03,29,11,30,12.20
2014,03,29,11,31,12.20
2014,03,29,11,32,12.10
2014,03,29,11,33,12.10
2014,03,29,11,34,12.00
2014,03,29,11,35,11.90
2014,03,29,11,36,11.90
2014,03,29,11,37,11.90
2014,03,29,11,38,11.80
2014,03,29,11,39,11.80
2014,03,29,11,40,11.80
2014,03,29,11,41,11.80
2014,03,29,11,42,11.80
2014,03,29,11,43,11.80
2014,03,29,11,44,11.80
2014,03,29,11,45,11.80
2014,03,29,11,46,11.80
2014,03,29,11,47,11.80
2014,03,29,11,48,11.80
2014,03,29,11,49,11.80
2014,03,29,11,50,11.80
2014,03,29,11,51,11.80
2014,03,29,11,52,11.70
2014,03,29,11,53,11.70
2014,03,29,11,54,11.70
2014,03,29,11,55,11.70
2014,03,29,11,56,11.60
2014,03,29,11,57,11.60
2014,03,29,11,58,11.60
2014,03,29,11,59,11.50
2014,03,29,12,00,11.50
2014,03,29,12,01,11.40
2014,03,29,12,02,11.40
2014,03,29,12,03,11.30
2014,03,29,12,04,11.30
2014,03,29,12,05,11.30
2014,03,29,12,06,11.30
2014,03,29,12,07,11.30
2014,03,29,12,08,11.30
2014,03,29,12,09,11.30
2014,03,29,12,10,11.30
2014,03,29,12,11,11.30
2014,03,29,12,12,11.40
2014,03,29,12,13,11.40
2014,03,29,12,14,11.50
2014,03,29,12,15,11.50
2014,03,29,12,16,11.60
2014,03,29,12,17,11.60
2014,03,29,12,18,11.60
2014,03,29,12,19,11.70
2014,03,29,12,20,11.70
2014,03,29,12,21,11.80
2014,03,29,12,22,11.80
2014,03,29,12,23,11.80
2014,03,29,12,24,11.80
2014,03,29,12,25,11.80
2014,03,29,12,26,11.80
2014,03,29,12,27,11.80
2014,03,29,12,28,11.80
2014,03,29,12,29,11.80
2014,03,29,12,30,11.80
2014,03,29,12,31,11.80
2014,03,29,12,32,11.80
2014,03,29,12,33,11.90
2014,03,29,12,34,11.90
2014,03,29,12,35,11.90
2014,03,29,12,36,11.80
2014,03,29,12,37,11.80
2014,03,29,12,38,11.80
2014,03,29,12,39,11.80
2014,03,29,12,40,11.80
2014,03,29,12,41,11.80
2014,03,29,12,42,11.80
2014,03,29,12,43,11.80
2014,03,29,12,44,11.80
2014,03,29,12,45,11.80
2014,03,29,12,46,11.80
2014,03,29,12,47,11.80
2014,03,29,12,48,11.80
2014,03,29,12,49,11.90
2014,03,29,12,50,11.90
2014,03,29,12,51,11.90
2014,03,29,12,52,11.90
2014,03,29,12,53,12.00
2014,03,29,12,54,12.00
2014,03,29,12,55,12.00
2014,03,29,12,56,12.10
2014,03,29,12,57,12.20
2014,03,29,12,58,12.20
2014,03,29,12,59,12.30
2014,03,29,13,00,12.40
2014,03,29,13,01,12.50
2014,03,29,13,02,12.50
2014,03,29,13,03,12.60
2014,03,29,13,04,12.60
2014,03,29,13,05,12.70
2014,03,29,13,06,12.70
2014,03,29,13,07,12.70
2014,03,29,13,08,12.60
2014,03,29,13,09,12.60
2014,03,29,13,10,12.60
2014,03,29,13,11,12.50
2014,03,29,13,12,12.50
2014,03,29,13,13,12.40
2014,03,29,13,14,12.40
2014,03,29,13,15,12.40
2014,03,29,13,16,12.40
2014,03,29,13,17,12.40
2014,03,29,13,18,12.30
2014,03,29,13,19,12.30
2014,03,29,13,20,12.30
2014,03,29,13,21,12.30
2014,03,29,13,22,12.30
2014,03,29,13,23,12.30
2014,03,29,13,24,12.40
2014,03,29,13,25,12.40
2014,03,29,13,26,12.50
2014,03,29,13,27,12.50
2014,03,29,13,28,12.60
2014,03,29,13,29,12.60
2014,03,29,13,30,12.70
2014,03,29,13,31,12.70
2014,03,29,13,32,12.80
2014,03,29,13,33,12.80
2014,03,29,13,34,12.80
2014,03,29,13,35,12.90
2014,03,29,13,36,12.90
2014,03,29,13,37,12.90
2014,03,29,13,38,13.00
2014,03,29,13,39,13.00
2014,03,29,13,40,13.10
2014,03,29,13,41,13.10
2014,03,29,13,42,13.20
2014,03,29,13,43,13.20
2014,03,29,13,44,13.20
2014,03,29,13,45,13.20
2014,03,29,13,46,13.20
2014,03,29,13,47,13.20
2014,03,29,13,48,13.20
2014,03,29,13,49,13.20
2014,03,29,13,50,13.20
2014,03,29,13,51,13.20
2014,03,29,13,52,13.30
2014,03,29,13,53,13.30
2014,03,29,13,54,13.30
2014,03,29,13,55,13.30
2014,03,29,13,56,13.30
2014,03,29,13,57,13.30
2014,03,29,13,58,13.30
2014,03,29,13,59,13.30
2014,03,29,14,00,13.30
2014,03,29,14,01,13.30
2014,03,29,14,02,13.20
2014,03,29,14,03,13.20
2014,03,29,14,04,13.20
2014,03,29,14,05,13.10
2014,03,29,14,06,13.10
2014,03,29,14,07,13.00
2014,03,29,14,08,12.90
2014,03,29,14,09,12.80
2014,03,29,14,10,12.80
2014,03,29,14,11,12.80
2014,03,29,14,12,12.70
2014,03,29,14,13,12.70
2014,03,29,14,14,12.70
2014,03,29,14,15,12.60
2014,03,29,14,16,12.60
2014,03,29,14,17,12.60
2014,03,29,14,18,12.50
2014,03,29,14,19,12.40
2014,03,29,14,20,12.30
2014,03,29,14,21,12.30
2014,03,29,14,22,12.20
2014,03,29,14,23,12.20
2014,03,29,14,24,12.20
2014,03,29,14,25,12.10
2014,03,29,14,26,12.10
2014,03,29,14,27,12.10
2014,03,29,14,28,12.10
2014,03,29,14,29,12.10
2014,03,29,14,30,12.00
2014,03,29,14,31,12.00
2014,03,29,14,32,12.00
2014,03,29,14,33,12.00
2014,03,29,14,34,12.00
2014,03,29,14,35,12.10
2014,03,29,14,36,12.10
2014,03,29,14,37,12.10
2014,03,29,14,38,12.20
2014,03,29,14,39,12.20
2014,03,29,14,40,12.20
2014,03,29,14,41,12.20
2014,03,29,14,42,12.20
2014,03,29,14,43,12.20
2014,03,29,14,44,12.20
2014,03,29,14,45,12.30
2014,03,29,14,46,12.30
2014,03,29,14,47,12.30
2014,03,29,14,48,12.30
2014,03,29,14,49,12.30
2014,03,29,14,50,12.40
2014,03,29,14,51,12.40
2014,03,29,14,52,12.40
2014,03,29,14,53,12.50
2014,03,29,14,54,12.50
2014,03,29,14,55,12.50
2014,03,29,14,56,12.50
2014,03,29,14,57,12.40
2014,03,29,14,58,12.40
2014,03,29,14,59,12.40
2014,03,29,15,00,12.40
2014,03,29,15,01,12.40
2014,03,29,15,02,12.40
2014,03,29,15,03,12.30
2014,03,29,15,04,12.30
2014,03,29,15,05,12.30
2014,03,29,15,06,12.30
2014,03,29,15,07,12.30
2014,03,29,15,08,12.30
2014,03,29,15,09,12.30
2014,03,29,15,10,12.30
2014,03,29,15,11,12.30
2014,03,29,15,12,12.40
2014,03,29,15,13,12.40
2014,03,29,15,14,12.40
2014,03,29,15,15,12.50
2014,03,29,15,16,12.50
2014,03,29,15,17,12.50
2014,03,29,15,18,12.60
2014,03,29,15,19,12.60
2014,03,29,15,20,12.60
2014,03,29,15,21,12.60
2014,03,29,15,22,12.70
2014,03,29,15,23,12.70
2014,03,29,15,24,12.60
2014,03,29,15,25,12.60
2014,03,29,15,26,12.60
2014,03,29,15,27,12.60
2014,03,29,15,28,12.70
2014,03,29,15,29,12.70
2014,03,29,15,30,12.70
2014,03,29,15,31,12.70
2014,03,29,15,32,12.70
2014,03,29,15,33,12.80
2014,03,29,15,34,12.80
2014,03,29,15,35,12.80
2014,03,29,15,36,12.80
2014,03,29,15,37,12.80
2014,03,29,15,38,12.90
2014,03,29,15,39,12.90
2014,03,29,15,40,13.00
2014,03,29,15,41,13.10
2014,03,29,15,42,13.20
2014,03,29,15,43,13.30
2014,03,29,15,44,13.40
2014,03,29,15,45,13.50
2014,03,29,15,46,13.60
2014,03,29,15,47,13.70
2014,03,29,15,48,13.80
2014,03,29,15,49,13.80
2014,03,29,15,50,13.90
2014,03,29,15,51,13.90
2014,03,29,15,52,13.90
2014,03,29,15,53,13.90
2014,03,29,15,54,13.90
2014,03,29,15,55,13.90
2014,03,29,15,56,13.80
2014,03,29,15,57,13.80
2014,03,29,15,58,13.80
2014,03,29,15,59,13.80
2014,03,29,16,00,13.80
2014,03,29,16,01,13.80
2014,03,29,16,02,13.90
2014,03,29,16,03,13.90
2014,03,29,16,04,14.00
2014,03,29,16,05,14.00
2014,03,29,16,06,14.10
2014,03,29,16,07,14.10
2014,03,29,16,08,14.10
2014,03,29,16,09,14.20
2014,03,29,16,10,14.20
2014,03,29,16,11,14.20
2014,03,29,16,12,14.20
2014,03,29,16,13,14.20
2014,03,29,16,14,14.20
2014,03,29,16,15,14.20
2014,03,29,16,16,14.20
2014,03,29,16,17,14.20
2014,03,29,16,18,14.20
2014,03,29,16,19,14.10
2014,03,29,16,20,14.10
2014,03,29,16,21,14.10
2014,03,29,16,22,14.10
2014,03,29,16,23,14.10
2014,03,29,16,24,14.00
2014,03,29,16,25,14.00
2014,03,29,16,26,14.00
2014,03,29,16,27,14.00
2014,03,29,16,28,14.00
2014,03,29,16,29,14.00
2014,03,29,16,30,14.00
2014,03,29,16,31,13.90
2014,03,29,16,32,13.90
2014,03,29,16,33,13.90
2014,03,29,16,34,13.90
2014,03,29,16,35,13.90
2014,03,29,16,36,13.90
2014,03,29,16,37,13.90
2014,03,29,16,38,13.90
2014,03,29,16,39,13.90
2014,03,29,16,40,14.00
2014,03,29,16,41,14.00
2014,03,29,16,42,14.00
2014,03,29,16,43,14.00
2014,03,29,16,44,14.10
2014,03,29,16,45,14.10
2014,03,29,16,46,14.10
2014,03,29,16,47,14.10
2014,03,29,16,48,14.00
2014,03,29,16,49,14.00
2014,03,29,16,50,14.00
2014,03,29,16,51,13.90
2014,03,29,16,52,13.80
2014,03,29,16,53,13.80
2014,03,29,16,54,13.70
2014,03,29,16,55,13.60
2014,03,29,16,56,13.60
2014,03,29,16,57,13.50
2014,03,29,16,58,13.40
2014,03,29,16,59,13.40
2014,03,29,17,00,13.30
2014,03,29,17,01,13.30
2014,03,29,17,02,13.20
2014,03,29,17,03,13.20
2014,03,29,17,04,13.20
2014,03,29,17,05,13.20
2014,03,29,17,06,13.20
2014,03,29,17,07,13.20
2014,03,29,17,08,13.20
2014,03,29,17,09,13.20
2014,03,29,17,10,13.20
2014,03,29,17,11,13.20
2014,03,29,17,12,13.20
2014,03,29,17,13,13.20
2014,03,29,17,14,13.20
2014,03,29,17,15,13.20
2014,03,29,17,16,13.10
2014,03,29,17,17,13.10
2014,03,29,17,18,13.10
2014,03,29,17,19,13.00
2014,03,29,17,20,13.00
2014,03,29,17,21,13.00
2014,03,29,17,22,12.90
2014,03,29,17,23,12.90
2014,03,29,17,24,12.90
2014,03,29,17,25,12.90
2014,03,29,17,26,12.90
2014,03,29,17,27,12.90
2014,03,29,17,28,12.90
2014,03,29,17,29,12.90
2014,03,29,17,30,12.90
2014,03,29,17,31,13.00
2014,03,29,17,32,13.00
2014,03,29,17,33,13.00
2014,03,29,17,34,13.00
2014,03,29,17,35,13.10
2014,03,29,17,36,13.00
2014,03,29,17,37,13.00
2014,03,29,17,38,13.00
2014,03,29,17,39,13.00
2014,03,29,17,40,13.00
2014,03,29,17,41,12.90
2014,03,29,17,42,12.90
2014,03,29,17,43,12.90
2014,03,29,17,44,12.90
2014,03,29,17,45,12.80